Flag for Bolivia Weather past 2 weeks in Oruro, Bolivia

Now
50 °F

Fog.


Feels Like: 50 °F
Forecast: 38 / 65 °F
Wind: No wind

Location: Cochabamba Airport

Current Time: Mar 28, 2015 at 7:25:28 AM

Latest Report: Mar 28, 2015 at 7:00 AM


Visibility: 0 mi

Pressure: 30.39 "Hg

Humidity: 100%

Dew point: 50 °F

Location of OruroLocation

Historic Weather in Oruro — Graph

°F

Oruro temperature yesterday

Maximum temperature yesterday: 72 °F (at 4:00 PM)
Minimum temperature yesterday: 54 °F (at 10:00 PM)
Average temperature yesterday: 59 °F

Past Weeks' High & Low Weather Summary

 TemperatureHumidityPressure
High86 °F (Mar 13, 3:00 PM)100% (Mar 27, 6:00 AM)30.45 "Hg (Mar 27, 6:00 AM)
Low50 °F (Mar 25, 5:00 AM)20% (Mar 13, 4:00 PM)30.01 "Hg (Mar 13, 4:00 PM)
Average65 °F56%30.29 "Hg
* Reported Mar 13 6:00 AM — Mar 28 6:00 AM, Oruro, Weather by CustomWeather, © 2015

Note: Actual official high and low records may vary slightly from our data, if they occured in-between our weather recording intervals... More about our weather records

Advertising

Oruro weather history for previous 24 hours

 ConditionsComfort  
Time TempWeatherWind HumidityBarometerVisibility
6:00 AM
Sat, Mar 28
50 °FPassing clouds.No wind100%30.36 "Hg4 mi
5:00 AM52 °FPassing clouds.No wind100%30.36 "Hg4 mi
4:00 AM52 °FThunderstorms. Overcast.No wind100%30.33 "HgN/A
3:00 AM54 °FPassing clouds.No wind94%30.33 "Hg5 mi
2:00 AM54 °FPassing clouds.No wind94%30.33 "HgN/A
1:00 AM54 °FPartly cloudy.8 mph94%30.36 "HgN/A
12:00 AM55 °FPartly cloudy.5 mph94%30.36 "HgN/A
11:00 PM
Fri, Mar 27
55 °FPassing clouds.3 mph94%30.39 "HgN/A
10:00 PM54 °FPassing clouds.No wind94%30.39 "HgN/A
9:00 PM55 °FPartly cloudy.No wind94%30.36 "HgN/A
8:00 PM55 °FPassing clouds.No wind88%30.33 "HgN/A
7:00 PM57 °FPassing clouds.7 mph82%30.30 "HgN/A
6:00 PM57 °FLight rain. More clouds than sun.17 mph82%30.30 "Hg2 mi
5:00 PM68 °FScattered showers. Broken clouds.12 mph49%30.24 "Hg4 mi
4:00 PM72 °FBroken clouds.6 mph38%30.24 "HgN/A
3:00 PM68 °FBroken clouds.7 mph46%30.24 "HgN/A
2:00 PM68 °FBroken clouds.3 mph43%30.30 "HgN/A
1:00 PM66 °FBroken clouds.No wind49%30.33 "HgN/A
12:00 PM63 °FBroken clouds.No wind64%30.36 "HgN/A
11:00 AM59 °FBroken clouds.7 mph72%30.18 "Hg4 mi
10:00 AM55 °FLight rain. More clouds than sun.7 mph88%30.39 "Hg3 mi
9:00 AM55 °FLight rain. More clouds than sun.3 mph94%30.39 "Hg2 mi
8:00 AM55 °FLight rain. More clouds than sun.5 mph94%30.36 "Hg2 mi
7:00 AM55 °FLight rain. More clouds than sun.7 mph94%30.33 "Hg3 mi
Weather by CustomWeather, © 2015

See weather overviewHow to use our weather pages